This is the latest recevied weather packets stored in our database for station/object KB9HUO. If no packets are shown the sender has not sent any weather packets the latest 10 day(s).
| Time | Temp. | Humidity | Pressure | Rain* | Wind** | Luminosity | Snow |
|---|---|---|---|---|---|---|---|
| 1788270335 | 27.22° C | 80% | 1020.4 hPa | 0 mm | - | 48 W/m² | - |
| 1788270029 | 26.67° C | 83% | 1020.4 hPa | 0 mm | - | 53 W/m² | - |
| 1788269728 | 26.67° C | 85% | 1020.5 hPa | 0 mm | - | 40 W/m² | - |
| 1788269427 | 26.11° C | 86% | 1020.3 hPa | 0 mm | - | 38 W/m² | - |
| 1788269127 | 25.56° C | 89% | 1020.4 hPa | 0 mm | - | 37 W/m² | - |
| 1788268826 | 25° C | 96% | 1020.5 hPa | 0 mm | - | 36 W/m² | - |
| 1788268521 | 24.44° C | 98% | 1020.6 hPa | 0 mm | - | 35 W/m² | - |
| 1788268216 | 23.89° C | 98% | 1020.7 hPa | 0 mm | - | 36 W/m² | - |
| 1788267910 | 23.33° C | 99% | 1020.6 hPa | 0 mm | - | 33 W/m² | - |
| 1788267609 | 23.33° C | 99% | 1020.6 hPa | 0 mm | - | 31 W/m² | - |
| 1788267309 | 22.78° C | 99% | 1020.3 hPa | 0 mm | - | 30 W/m² | - |
| 1788267009 | 22.78° C | 99% | 1020.2 hPa | 0 mm | - | 29 W/m² | - |
| 1788266703 | 22.22° C | 99% | 1020.3 hPa | 0 mm | - | 28 W/m² | - |
| 1788266398 | 21.67° C | 99% | 1020.3 hPa | 0 mm | - | 27 W/m² | - |
| 1788266093 | 21.67° C | 99% | 1020.3 hPa | 0 mm | - | 26 W/m² | - |
| 1788265791 | 21.11° C | 99% | 1020.4 hPa | 0 mm | - | 24 W/m² | - |
| 1788265491 | 21.11° C | 99% | 1020.3 hPa | 0 mm | - | 23 W/m² | - |
| 1788265190 | 20.56° C | 99% | 1020.6 hPa | 0 mm | - | 22 W/m² | - |
| 1788264885 | 20.56° C | 99% | 1020.4 hPa | 0 mm | - | 20 W/m² | - |
| 1788264581 | 20.56° C | 99% | 1020.2 hPa | 0 mm | - | 19 W/m² | - |
| 1788264275 | 20° C | 99% | 1020.2 hPa | 0 mm | - | 17 W/m² | - |
| 1788263971 | 20° C | 99% | 1020.3 hPa | 0 mm | - | 16 W/m² | - |
| 1788263670 | 20° C | 99% | 1020 hPa | 0 mm | - | 14 W/m² | - |
| 1788263368 | 19.44° C | 99% | 1019.8 hPa | 0 mm | - | 13 W/m² | - |
| 1788262761 | 19.44° C | 99% | 1019.8 hPa | 0 mm | - | 9 W/m² | - |
* Rain latest hour (hover to see other rain measurements)
** Current wind speed in m/s (hover to see current wind gust speed)